TimeCDT,TemperatureF,Dew PointF,Humidity,Sea Level PressureIn,VisibilityMPH,Wind Direction,Wind SpeedMPH,Gust SpeedMPH,PrecipitationIn,Events,Conditions,WindDirDegrees,DateUTC
12:35 AM,60.8,57.2,88,29.97,10.0,ENE,5.8,-,N/A,,Overcast,60,2011-10-11 05:35:00
12:55 AM,60.8,57.2,88,29.97,10.0,NE,8.1,-,N/A,,Overcast,50,2011-10-11 05:55:00
1:15 AM,60.8,55.4,82,29.96,10.0,ENE,8.1,-,N/A,,Mostly Cloudy,60,2011-10-11 06:15:00
1:35 AM,60.8,55.4,82,29.96,10.0,NE,10.4,-,N/A,,Partly Cloudy,50,2011-10-11 06:35:00
1:55 AM,60.8,55.4,82,29.95,10.0,NE,5.8,-,N/A,,Partly Cloudy,50,2011-10-11 06:55:00
2:15 AM,60.8,55.4,82,29.95,10.0,NE,4.6,-,N/A,,Mostly Cloudy,40,2011-10-11 07:15:00
2:35 AM,60.8,55.4,82,29.95,10.0,NNE,4.6,-,N/A,,Overcast,30,2011-10-11 07:35:00
2:55 AM,60.8,55.4,82,29.95,10.0,NNE,5.8,-,N/A,,Overcast,20,2011-10-11 07:55:00
3:35 AM,62.6,55.4,77,29.94,10.0,NNE,5.8,-,N/A,,Overcast,30,2011-10-11 08:35:00
3:55 AM,62.6,55.4,77,29.94,10.0,NE,8.1,-,N/A,,Overcast,50,2011-10-11 08:55:00
4:15 AM,62.6,55.4,77,29.94,10.0,ENE,6.9,-,N/A,,Overcast,60,2011-10-11 09:15:00
4:35 AM,62.6,55.4,77,29.94,10.0,ENE,9.2,-,N/A,,Overcast,60,2011-10-11 09:35:00
4:55 AM,62.6,55.4,77,29.94,10.0,ENE,9.2,-,N/A,,Overcast,70,2011-10-11 09:55:00
5:15 AM,62.6,55.4,77,29.94,10.0,ENE,8.1,-,N/A,,Overcast,60,2011-10-11 10:15:00
5:35 AM,62.6,55.4,77,29.95,10.0,NE,6.9,-,N/A,,Overcast,50,2011-10-11 10:35:00
5:55 AM,62.6,55.4,77,29.95,10.0,ENE,8.1,-,N/A,,Overcast,60,2011-10-11 10:55:00
6:15 AM,62.6,55.4,77,29.96,10.0,ENE,6.9,-,N/A,,Overcast,60,2011-10-11 11:15:00
6:35 AM,62.6,55.4,77,29.97,10.0,NE,11.5,-,N/A,,Overcast,50,2011-10-11 11:35:00
6:55 AM,60.8,55.4,82,29.97,10.0,NE,10.4,-,N/A,,Overcast,50,2011-10-11 11:55:00
8:15 AM,60.8,57.2,88,29.98,8.0,ENE,10.4,-,N/A,,Overcast,70,2011-10-11 13:15:00
8:35 AM,60.8,55.4,82,29.98,8.0,ENE,12.7,17.3,N/A,,Mostly Cloudy,70,2011-10-11 13:35:00
8:55 AM,60.8,57.2,88,29.98,10.0,ENE,12.7,-,N/A,,Overcast,60,2011-10-11 13:55:00
9:15 AM,60.8,57.2,88,29.97,10.0,ENE,15.0,19.6,N/A,,Overcast,60,2011-10-11 14:15:00
9:55 AM,60.8,55.4,82,29.97,10.0,ENE,15.0,19.6,N/A,,Overcast,70,2011-10-11 14:55:00
10:15 AM,60.8,55.4,82,29.98,10.0,ENE,10.4,20.7,N/A,,Overcast,70,2011-10-11 15:15:00
10:35 AM,60.8,57.2,88,29.98,10.0,ENE,6.9,16.1,N/A,,Overcast,60,2011-10-11 15:35:00
10:55 AM,60.8,57.2,88,29.98,10.0,ENE,9.2,-,N/A,,Overcast,60,2011-10-11 15:55:00
11:15 AM,60.8,57.2,88,29.98,10.0,ENE,9.2,-,N/A,,Overcast,70,2011-10-11 16:15:00
11:35 AM,60.8,57.2,88,29.98,10.0,ENE,11.5,-,N/A,,Overcast,70,2011-10-11 16:35:00
11:55 AM,60.8,57.2,88,29.98,10.0,ENE,9.2,-,N/A,,Overcast,70,2011-10-11 16:55:00
12:15 PM,60.8,57.2,88,29.96,10.0,ENE,11.5,-,N/A,,Overcast,70,2011-10-11 17:15:00
12:35 PM,60.8,57.2,88,29.95,5.0,ENE,10.4,-,N/A,,Overcast,70,2011-10-11 17:35:00
12:55 PM,60.8,57.2,88,29.95,9.0,East,9.2,-,N/A,,Overcast,80,2011-10-11 17:55:00
1:15 PM,62.6,57.2,82,29.94,3.0,East,9.2,-,N/A,,Overcast,80,2011-10-11 18:15:00
1:35 PM,62.6,57.2,82,29.93,3.0,East,12.7,18.4,N/A,,Overcast,80,2011-10-11 18:35:00
1:55 PM,60.8,57.2,88,29.93,6.0,ENE,6.9,-,0.01,,Overcast,70,2011-10-11 18:55:00
2:15 PM,60.8,57.2,88,29.93,8.0,ENE,4.6,-,N/A,,Overcast,60,2011-10-11 19:15:00
2:35 PM,62.6,57.2,82,29.92,3.0,East,5.8,-,N/A,,Overcast,80,2011-10-11 19:35:00
2:55 PM,62.6,59.0,88,29.92,2.0,ENE,4.6,-,0.02,,Overcast,70,2011-10-11 19:55:00
3:15 PM,62.6,59.0,88,29.92,4.0,NE,6.9,-,N/A,,Overcast,40,2011-10-11 20:15:00
3:35 PM,62.6,59.0,88,29.92,10.0,NNE,5.8,-,N/A,,Overcast,30,2011-10-11 20:35:00
3:55 PM,62.6,59.0,88,29.92,10.0,NE,5.8,-,N/A,,Overcast,50,2011-10-11 20:55:00
4:15 PM,62.6,59.0,88,29.92,10.0,NE,4.6,-,N/A,,Overcast,40,2011-10-11 21:15:00
4:55 PM,62.6,59.0,88,29.91,10.0,East,6.9,-,N/A,,Overcast,80,2011-10-11 21:55:00
5:15 PM,62.6,59.0,88,29.90,10.0,East,6.9,-,N/A,,Overcast,80,2011-10-11 22:15:00
5:55 PM,62.6,57.2,82,29.90,10.0,East,6.9,-,N/A,,Overcast,80,2011-10-11 22:55:00
6:15 PM,62.6,57.2,82,29.91,10.0,ENE,8.1,-,N/A,,Overcast,60,2011-10-11 23:15:00
6:35 PM,62.6,57.2,82,29.90,10.0,ENE,5.8,-,N/A,,Overcast,60,2011-10-11 23:35:00
6:55 PM,62.6,55.4,77,29.92,10.0,ENE,5.8,-,N/A,,Overcast,70,2011-10-11 23:55:00
7:15 PM,62.6,55.4,77,29.92,10.0,ENE,9.2,-,N/A,,Overcast,70,2011-10-12 00:15:00
7:35 PM,62.6,55.4,77,29.93,10.0,East,8.1,-,N/A,,Overcast,80,2011-10-12 00:35:00
7:55 PM,62.6,55.4,77,29.93,10.0,East,8.1,-,N/A,,Overcast,80,2011-10-12 00:55:00
8:15 PM,62.6,55.4,77,29.93,10.0,ENE,8.1,-,N/A,,Overcast,70,2011-10-12 01:15:00
8:35 PM,60.8,55.4,82,29.93,10.0,ENE,6.9,-,N/A,,Overcast,70,2011-10-12 01:35:00
8:55 PM,60.8,55.4,82,29.93,10.0,ENE,5.8,-,N/A,,Overcast,70,2011-10-12 01:55:00
9:15 PM,60.8,55.4,82,29.92,10.0,ENE,10.4,-,N/A,,Overcast,70,2011-10-12 02:15:00
9:35 PM,60.8,55.4,82,29.92,10.0,ENE,6.9,-,N/A,,Overcast,70,2011-10-12 02:35:00
9:55 PM,60.8,55.4,82,29.92,10.0,ENE,6.9,-,N/A,,Overcast,70,2011-10-12 02:55:00
10:15 PM,60.8,55.4,82,29.92,10.0,ENE,5.8,-,N/A,,Overcast,70,2011-10-12 03:15:00
10:35 PM,60.8,55.4,82,29.92,10.0,ENE,4.6,-,N/A,,Overcast,60,2011-10-12 03:35:00
10:55 PM,60.8,57.2,88,29.92,10.0,ENE,3.5,-,N/A,,Overcast,70,2011-10-12 03:55:00
11:15 PM,60.8,57.2,88,29.93,10.0,Calm,Calm,-,N/A,,Overcast,0,2011-10-12 04:15:00
11:35 PM,60.8,55.4,82,29.92,10.0,ENE,5.8,-,N/A,,Overcast,60,2011-10-12 04:35:00
11:55 PM,-9999,-9999,N/A,-9999,10.0,North,-9999.0,-,N/A,,Overcast,0,2011-10-12 04:55:00